Regional Weather Roundup
Issued by NWS Midland/Odessa, TX

Skip options and go directly to product.
Home | Oldest Version | Next Version | Current Version | All | Text Only | Save Text | Print | Product List | Glossary On

Skip product version selection by date and time.   
983
ASUS44 KMAF 242101
RWRMAF
MIDLAND AREA WEATHER ROUNDUP
NATIONAL WEATHER SERVICE MIDLAND TX
400 PM CDT FRI APR 24 2015

...IN SOUTHWEST TEXAS AND SOUTHEAST NEW MEXICO...

CITY           SKY/WX    TMP DP  RH WIND       PRES   REMARKS
ALPINE         MOSUNNY   75  40  28 W13G22    29.96F
ANDREWS        FAIR      78  28  15 W24G41    29.79F
ARTESIA        SUNNY     77  27  15 W22G36    29.80F
BIG SPRING     PTSUNNY   80  50  35 SW25      29.80S
CARLSBAD       SUNNY     79  26  14 W25G37    29.81F
DRYDEN           N/A     86  50  28 W15G23    29.76F
FORT STOCKTON  PTSUNNY   81  45  28 W9G18     29.81F
GUAD PASS      NOT AVBL
HOBBS          SUNNY     75  25  15 SW29G41   29.80F
MARFA          MOSUNNY   72  43  35 W21G29    29.96S
MIDLAND AIRPK  MOSUNNY   79  42  27 W17G28    29.79F
MIDLAND INTL   MOSUNNY   79  45  29 W22G29    29.79F
ODESSA         MOSUNNY   79  40  24 W20G31    29.80F
PECOS          MOSUNNY   83  33  16 SW15G32   29.80F
PRESIDIO       FAIR      84  38  19 S9        29.83F
SEMINOLE       SUNNY     79  28  15 W28G35    29.79F
SNYDER         CLOUDY    72  62  70 S6        29.75F
WINK           MOSUNNY   83  29  14 W23G31    29.78F
$$
...OTHER STATIONS IN TEXAS...

CITY           SKY/WX    TMP DP  RH WIND       PRES   REMARKS
ABILENE        CLOUDY    74  61  63 N9        29.71F
AMARILLO       MOSUNNY   74  35  24 SW38G48   29.64S
AUSTIN         CLOUDY    83  73  72 S16G25    29.73F
BROWNSVILLE    CLOUDY    85  77  77 SE14      29.74F
CORPUS CHRISTI PTSUNNY   82  75  79 SE16      29.73F
DALLAS FTW     LGT RAIN  67  65  93 E8        29.73F
DEL RIO        CLOUDY    78  70  76 SE6       29.73S
EL PASO        MOSUNNY   73  25  16 SW20G35   29.90F
HOUSTON INT    CLOUDY    83  72  69 S9        29.78F
LUBBOCK        MOSUNNY   80  30  16 SW33G48   29.70F
SAN ANGELO     MOSUNNY   87  63  44 S21G29    29.69F
SAN ANTONIO    CLOUDY    82  73  74 S13       29.75F
WACO           CLOUDY    77  71  82 S13       29.74F
WICHITA FALLS  NOT AVBL
$$
...OTHER LOCATIONS IN NEW MEXICO...

CITY           SKY/WX    TMP DP  RH WIND       PRES   REMARKS
ALAMAGORDO     MOSUNNY   70  27  19 SW18G26   29.88F
ALBUQUERQUE    PTSUNNY   53  38  56 NE8       29.88F
CANNON AFB     NOT AVBL
CLOVIS         MOSUNNY   70  34  26 W33G40    29.75R
HOLLOMAN AFB   MOSUNNY   72  28  20 W16G29    29.86S
ROSWELL        MOSUNNY   74  35  24 W13       29.79S
RUIDOSO        MOSUNNY   54  27  35 W17G29    29.96S
SANTA FE       PTSUNNY   54  25  32 W21G35    29.84S
TRUTH OR CONSE MOSUNNY   69  23  17 W12G21    29.86F
TUCUMCARI      MOSUNNY   72  28  19 W29G38    29.67F
$$

USA.gov is the U.S. government's official web portal to all federal, state and local government web resources and services.